Lyndonville, VT

10:35 PM EST on February 05, 2016 (GMT -0500)
Lyndonville

Weather History for KCDA - May, 2013

Change the Weather History Date:

Wednesday, May 8, 2013

  Actual Average (K1V4) Record (K1V4)
Temperature  
Mean Temperature 62 °F 54 °F  
Max Temperature 79 °F 66 °F 90 °F (1936)
Min Temperature 47 °F 41 °F 22 °F (1950)
Degree Days  
Heating Degree Days 2 11  
Month to date heating degree days 102  
Since 1 July heating degree days 7521  
Cooling Degree Days 0 0  
Month to date cooling degree days 0  
Year to date cooling degree days 1  
Growing Degree Days 12 (Base 50)    
Moisture  
Dew Point 44 °F    
Average Humidity 52    
Maximum Humidity 78    
Minimum Humidity 17    
Precipitation  
Precipitation 0.00 in 0.10 in 0.83 in (2010)
Month to date precipitation 0.83  
Year to date precipitation 10.88  
Sea Level Pressure  
Sea Level Pressure 30.15 in    
Wind  
Wind Speed 4 mph (SSE)    
Max Wind Speed 16 mph    
Max Gust Speed 22 mph    
Visibility 10 miles    
Events Rain    
T = Trace of Precipitation, MM = Missing Value Source: NWS Daily Summary

Daily Weather History Graph

Daily Weather History Graph

Search for Another Location

Airport or City:

Trip Planner

Search our weather history database for the weather conditions in past years. The results will help you decide how hot, cold, wet, or windy it might be!

Date:

Astronomy

May. 08, 2013 Rise Set
Actual Time 5:28 AM EDT 8:01 PM EDT
Civil Twilight 4:55 AM EDT 8:34 PM EDT
Nautical Twilight 4:14 AM EDT 9:15 PM EDT
Astronomical Twilight 3:27 AM EDT 10:03 PM EDT
Moon 4:38 AM EDT (5/8) 6:54 PM EDT (5/8)
Length of Visible Light 15h 38m
Length of Day
14h 32m
Waning Crescent, 2% of the Moon is Illuminated
May 8
Waning Crescent
May 9
New
May 18
First Quarter
May 25
Full
May 31
Last Quarter

Hourly Weather History & Observations

Time (EDT) Temp. Dew Point Humidity Pressure Visibility Wind Dir Wind Speed Gust Speed Precip Events Conditions
12:15 AM 56.8 °F 37.0 °F 48% 30.16 in 10.0 mi Calm Calm - N/A   Clear
12:35 AM 55.4 °F 37.4 °F 51% 30.16 in 10.0 mi Calm Calm - N/A   Clear
12:55 AM 56.3 °F 36.5 °F 47% 30.16 in 10.0 mi Calm Calm - N/A   Clear
1:15 AM 55.8 °F 35.6 °F 47% 30.16 in 10.0 mi Calm Calm - N/A   Clear
1:35 AM 53.8 °F 36.1 °F 51% 30.16 in 10.0 mi Calm Calm - N/A   Clear
1:55 AM 56.7 °F 35.4 °F 45% 30.16 in 10.0 mi Calm Calm - N/A   Clear
2:15 AM 55.0 °F 36.0 °F 49% 30.16 in 10.0 mi Calm Calm - N/A   Clear
2:35 AM 51.4 °F 37.2 °F 58% 30.16 in 10.0 mi Calm Calm - N/A   Clear
2:55 AM 51.1 °F 37.4 °F 60% 30.16 in 10.0 mi Calm Calm - N/A   Clear
3:15 AM 52.3 °F 36.9 °F 56% 30.16 in 10.0 mi Calm Calm - N/A   Clear
3:35 AM 50.9 °F 36.1 °F 57% 30.16 in 10.0 mi East 3.5 mph - N/A   Clear
3:55 AM 51.4 °F 36.0 °F 56% 30.16 in 10.0 mi Calm Calm - N/A   Clear
4:15 AM 50.5 °F 36.5 °F 59% 30.16 in 10.0 mi Calm Calm - N/A   Clear
4:35 AM 49.1 °F 36.9 °F 63% 30.16 in 10.0 mi Calm Calm - N/A   Clear
4:55 AM 48.2 °F 37.4 °F 66% 30.17 in 10.0 mi Calm Calm - N/A   Clear
5:15 AM 48.2 °F 37.4 °F 66% 30.17 in 10.0 mi Calm Calm - N/A   Clear
5:35 AM 47.5 °F 37.4 °F 68% 30.18 in 10.0 mi Calm Calm - N/A   Clear
5:55 AM 48.0 °F 37.6 °F 67% 30.18 in 10.0 mi Calm Calm - N/A   Clear
6:15 AM 49.8 °F 38.3 °F 65% 30.18 in 10.0 mi Calm Calm - N/A   Clear
6:55 AM 51.8 °F 41.0 °F 67% 30.19 in 10.0 mi Calm Calm - N/A   Clear
7:15 AM 52.0 °F 41.2 °F 67% 30.20 in 10.0 mi Calm Calm - N/A   Clear
7:35 AM 54.1 °F 40.8 °F 61% 30.20 in 10.0 mi Calm Calm - N/A   Clear
7:55 AM 57.4 °F 43.3 °F 59% 30.21 in 10.0 mi Calm Calm - N/A   Clear
8:15 AM 59.0 °F 45.0 °F 60% 30.21 in 10.0 mi Calm Calm - N/A   Clear
8:35 AM 62.2 °F 47.7 °F 59% 30.21 in 10.0 mi SSE 6.9 mph - N/A   Clear
8:55 AM 63.5 °F 49.5 °F 60% 30.21 in 10.0 mi SSE 4.6 mph - N/A   Clear
9:15 AM 64.9 °F 50.4 °F 59% 30.21 in 10.0 mi SSE 6.9 mph - N/A   Clear
9:35 AM 66.2 °F 49.5 °F 55% 30.21 in 10.0 mi SSE 8.1 mph - N/A   Clear
9:55 AM 68.5 °F 48.9 °F 49% 30.21 in 10.0 mi SSE 10.4 mph - N/A   Clear
10:15 AM 69.6 °F 49.1 °F 48% 30.20 in 10.0 mi South 8.1 mph - N/A   Clear
10:35 AM 70.5 °F 46.8 °F 43% 30.20 in 10.0 mi South 10.4 mph - N/A   Clear
10:55 AM 71.4 °F 47.3 °F 42% 30.19 in 10.0 mi South 8.1 mph - N/A   Clear
11:15 AM 73.0 °F 47.3 °F 40% 30.19 in 10.0 mi SE 9.2 mph - N/A   Clear
11:35 AM 73.8 °F 46.9 °F 38% 30.18 in 10.0 mi South 6.9 mph - N/A   Clear
11:55 AM 75.4 °F 47.1 °F 37% 30.18 in 10.0 mi SSE 8.1 mph - N/A   Clear
12:15 PM 76.1 °F 47.5 °F 36% 30.16 in 10.0 mi South 8.1 mph - N/A   Clear
12:35 PM 76.1 °F 45.5 °F 34% 30.16 in 10.0 mi South 8.1 mph - N/A   Clear
12:55 PM 76.5 °F 43.7 °F 31% 30.15 in 10.0 mi SSE 11.5 mph 18.4 mph N/A   Clear
1:15 PM 75.7 °F 44.2 °F 32% 30.14 in 10.0 mi South 13.8 mph 17.3 mph N/A   Scattered Clouds
1:35 PM 77.4 °F 35.6 °F 22% 30.14 in 10.0 mi SSE 6.9 mph 19.6 mph N/A   Clear
1:55 PM 78.6 °F 31.3 °F 18% 30.14 in 10.0 mi SSE 11.5 mph 19.6 mph N/A   Clear
2:15 PM 78.1 °F 29.5 °F 17% 30.14 in 10.0 mi SSE 12.7 mph 19.6 mph N/A   Scattered Clouds
2:35 PM 78.1 °F 34.2 °F 20% 30.13 in 10.0 mi SSE 12.7 mph 20.7 mph N/A   Scattered Clouds
2:55 PM 77.4 °F 42.3 °F 29% 30.13 in 10.0 mi South 15.0 mph 21.9 mph N/A   Scattered Clouds
3:15 PM 73.8 °F 47.7 °F 40% 30.12 in 10.0 mi South 13.8 mph 20.7 mph N/A   Mostly Cloudy
3:35 PM 72.7 °F 47.7 °F 41% 30.12 in 10.0 mi SSW 13.8 mph 18.4 mph N/A   Mostly Cloudy
3:55 PM 72.5 °F 47.1 °F 40% 30.12 in 10.0 mi South 16.1 mph 19.6 mph N/A   Mostly Cloudy
4:15 PM 72.5 °F 48.4 °F 42% 30.12 in 10.0 mi SSE 12.7 mph 18.4 mph N/A   Overcast
4:35 PM 71.2 °F 48.9 °F 45% 30.11 in 10.0 mi South 11.5 mph 19.6 mph N/A   Overcast
4:55 PM 72.0 °F 48.2 °F 43% 30.11 in 10.0 mi SSE 11.5 mph 18.4 mph N/A   Mostly Cloudy
5:15 PM 70.7 °F 48.4 °F 45% 30.11 in 10.0 mi SSE 8.1 mph - N/A   Mostly Cloudy
5:35 PM 72.0 °F 48.9 °F 44% 30.11 in 10.0 mi SSE 10.4 mph 16.1 mph N/A   Mostly Cloudy
5:55 PM 71.1 °F 48.6 °F 45% 30.11 in 10.0 mi SSE 9.2 mph - N/A   Mostly Cloudy
6:15 PM 70.3 °F 48.7 °F 46% 30.11 in 10.0 mi SSE 9.2 mph - N/A   Mostly Cloudy
6:35 PM 69.6 °F 49.3 °F 48% 30.11 in 10.0 mi SSE 9.2 mph - N/A   Overcast
6:55 PM 68.5 °F 49.1 °F 50% 30.10 in 10.0 mi SE 8.1 mph - N/A   Mostly Cloudy
7:15 PM 68.5 °F 48.4 °F 49% 30.11 in 10.0 mi SSE 8.1 mph - N/A   Mostly Cloudy
7:35 PM 68.2 °F 49.1 °F 50% 30.11 in 10.0 mi SSE 6.9 mph - N/A   Scattered Clouds
7:55 PM 67.6 °F 48.7 °F 51% 30.11 in 10.0 mi SE 6.9 mph - N/A   Mostly Cloudy
8:15 PM 66.7 °F 48.0 °F 51% 30.11 in 10.0 mi SSE 8.1 mph - N/A   Mostly Cloudy
8:35 PM 64.0 °F 50.7 °F 62% 30.11 in 10.0 mi SSE 3.5 mph - N/A Rain Light Rain
8:55 PM 63.5 °F 51.1 °F 64% 30.12 in 10.0 mi Calm Calm - N/A   Overcast
9:15 PM 63.5 °F 51.8 °F 66% 30.12 in 10.0 mi SE 5.8 mph - N/A   Light Drizzle
9:35 PM 62.2 °F 51.8 °F 69% 30.12 in 10.0 mi SSE 4.6 mph - N/A   Light Drizzle
9:55 PM 61.7 °F 51.8 °F 70% 30.12 in 10.0 mi Calm Calm - N/A   Overcast
10:15 PM 60.8 °F 52.2 °F 73% 30.12 in 10.0 mi SSE 3.5 mph - N/A   Overcast
10:35 PM 60.4 °F 53.1 °F 77% 30.12 in 7.0 mi SE 4.6 mph - N/A   Overcast
10:55 PM 59.9 °F 53.1 °F 78% 30.11 in 10.0 mi Calm Calm - N/A   Overcast
11:15 PM 59.9 °F 52.7 °F 77% 30.11 in 10.0 mi Calm Calm - N/A   Mostly Cloudy
11:35 PM 59.9 °F 52.7 °F 77% 30.10 in 10.0 mi Calm Calm - N/A   Overcast